TimeCST,TemperatureF,Dew PointF,Humidity,Sea Level PressureIn,VisibilityMPH,Wind Direction,Wind SpeedMPH,Gust SpeedMPH,PrecipitationIn,Events,Conditions,WindDirDegrees,DateUTC
12:14 AM,35.6,23.0,60,29.86,10.0,WNW,16.1,25.3,N/A,,Overcast,290,2013-11-18 06:14:00
12:34 AM,33.8,24.8,70,29.86,10.0,West,17.3,24.2,N/A,,Overcast,280,2013-11-18 06:34:00
12:54 AM,33.8,24.8,70,29.87,10.0,West,19.6,23.0,N/A,,Overcast,270,2013-11-18 06:54:00
1:14 AM,33.8,23.0,65,29.87,10.0,West,25.3,32.2,N/A,,Overcast,270,2013-11-18 07:14:00
1:34 AM,33.8,23.0,65,29.88,10.0,West,19.6,27.6,N/A,,Overcast,270,2013-11-18 07:34:00
1:53 AM,33.8,21.2,60,29.89,10.0,West,19.6,28.8,N/A,,Overcast,270,2013-11-18 07:53:00
2:14 AM,33.8,23.0,65,29.90,10.0,West,17.3,31.1,N/A,,Overcast,270,2013-11-18 08:14:00
2:34 AM,33.8,21.2,60,29.91,10.0,West,19.6,29.9,N/A,,Overcast,280,2013-11-18 08:34:00
2:53 AM,33.8,21.2,60,29.91,10.0,West,19.6,28.8,N/A,,Overcast,280,2013-11-18 08:53:00
3:14 AM,33.8,21.2,60,29.91,10.0,West,21.9,28.8,N/A,,Overcast,280,2013-11-18 09:14:00
3:34 AM,33.8,21.2,60,29.92,10.0,West,20.7,28.8,N/A,,Overcast,280,2013-11-18 09:34:00
3:54 AM,33.8,21.2,60,29.93,10.0,West,21.9,28.8,N/A,,Overcast,280,2013-11-18 09:54:00
4:14 AM,33.8,21.2,60,29.94,10.0,West,23.0,28.8,N/A,,Overcast,280,2013-11-18 10:14:00
4:34 AM,33.8,19.4,56,29.95,10.0,West,15.0,29.9,N/A,,Overcast,280,2013-11-18 10:34:00
4:54 AM,33.8,19.4,56,29.96,10.0,WNW,16.1,25.3,N/A,,Overcast,290,2013-11-18 10:54:00
5:14 AM,33.8,19.4,56,29.97,10.0,West,18.4,25.3,N/A,,Overcast,280,2013-11-18 11:14:00
5:34 AM,32.0,19.4,60,29.98,10.0,West,16.1,27.6,N/A,,Overcast,280,2013-11-18 11:34:00
5:54 AM,32.0,19.4,60,29.98,10.0,West,20.7,26.5,N/A,,Overcast,280,2013-11-18 11:54:00
6:14 AM,32.0,19.4,60,29.99,10.0,West,17.3,24.2,N/A,,Overcast,280,2013-11-18 12:14:00
6:34 AM,32.0,19.4,60,30.00,10.0,West,16.1,23.0,N/A,,Overcast,280,2013-11-18 12:34:00
6:54 AM,32.0,19.4,60,30.01,10.0,WNW,17.3,23.0,N/A,,Overcast,290,2013-11-18 12:54:00
7:14 AM,32.0,19.4,60,30.02,10.0,WNW,17.3,28.8,N/A,,Overcast,290,2013-11-18 13:14:00
7:34 AM,32.0,19.4,60,30.03,10.0,WNW,15.0,26.5,N/A,,Overcast,290,2013-11-18 13:34:00
7:54 AM,32.0,19.4,60,30.04,10.0,WNW,15.0,24.2,N/A,,Overcast,300,2013-11-18 13:54:00
8:14 AM,32.0,19.4,60,30.05,10.0,WNW,17.3,25.3,N/A,,Overcast,290,2013-11-18 14:14:00
8:34 AM,33.8,19.4,56,30.06,10.0,WNW,12.7,24.2,N/A,,Overcast,290,2013-11-18 14:34:00
8:54 AM,33.8,19.4,56,30.06,10.0,WNW,15.0,25.3,N/A,,Mostly Cloudy,300,2013-11-18 14:54:00
9:14 AM,33.8,19.4,56,30.08,10.0,WNW,16.1,24.2,N/A,,Scattered Clouds,290,2013-11-18 15:14:00
9:34 AM,33.8,21.2,60,30.09,10.0,WNW,15.0,23.0,N/A,,Mostly Cloudy,290,2013-11-18 15:34:00
9:54 AM,33.8,19.4,56,30.10,10.0,WNW,10.4,-,N/A,,Mostly Cloudy,300,2013-11-18 15:54:00
10:14 AM,35.6,19.4,52,30.11,10.0,WNW,13.8,18.4,N/A,,Mostly Cloudy,300,2013-11-18 16:14:00
10:34 AM,33.8,21.2,60,30.12,10.0,WNW,15.0,24.2,N/A,,Scattered Clouds,290,2013-11-18 16:34:00
10:54 AM,35.6,19.4,52,30.13,10.0,West,17.3,21.9,N/A,,Mostly Cloudy,270,2013-11-18 16:54:00
11:14 AM,35.6,19.4,52,30.14,10.0,WNW,17.3,23.0,N/A,,Mostly Cloudy,290,2013-11-18 17:14:00
11:34 AM,35.6,19.4,52,30.14,10.0,WNW,12.7,23.0,N/A,,Mostly Cloudy,290,2013-11-18 17:34:00
11:54 AM,35.6,19.4,52,30.14,10.0,WNW,13.8,20.7,N/A,,Scattered Clouds,290,2013-11-18 17:54:00
12:14 PM,37.4,19.4,48,30.14,10.0,WNW,12.7,20.7,N/A,,Scattered Clouds,290,2013-11-18 18:14:00
12:34 PM,37.4,19.4,48,30.15,10.0,West,13.8,-,N/A,,Scattered Clouds,270,2013-11-18 18:34:00
12:54 PM,37.4,19.4,48,30.15,10.0,West,13.8,23.0,N/A,,Scattered Clouds,280,2013-11-18 18:54:00
1:14 PM,39.2,19.4,45,30.15,10.0,WNW,12.7,20.7,N/A,,Scattered Clouds,290,2013-11-18 19:14:00
1:34 PM,37.4,19.4,48,30.15,10.0,West,10.4,20.7,N/A,,Scattered Clouds,280,2013-11-18 19:34:00
1:54 PM,39.2,19.4,45,30.16,10.0,WNW,12.7,18.4,N/A,,Scattered Clouds,290,2013-11-18 19:54:00
2:14 PM,39.2,19.4,45,30.16,10.0,West,13.8,19.6,N/A,,Clear,280,2013-11-18 20:14:00
2:34 PM,39.2,19.4,45,30.17,10.0,West,10.4,16.1,N/A,,Clear,280,2013-11-18 20:34:00
2:54 PM,39.2,17.6,42,30.17,10.0,West,12.7,17.3,N/A,,Clear,280,2013-11-18 20:54:00
3:14 PM,37.4,17.6,45,30.18,10.0,West,11.5,-,N/A,,Clear,280,2013-11-18 21:14:00
3:34 PM,37.4,17.6,45,30.18,10.0,WNW,11.5,19.6,N/A,,Clear,290,2013-11-18 21:34:00
3:53 PM,37.4,17.6,45,30.18,10.0,NW,10.4,-,N/A,,Clear,310,2013-11-18 21:53:00
4:14 PM,37.4,17.6,45,30.18,10.0,West,6.9,-,N/A,,Clear,280,2013-11-18 22:14:00
4:34 PM,35.6,17.6,48,30.19,10.0,West,6.9,-,N/A,,Clear,280,2013-11-18 22:34:00
4:53 PM,33.8,19.4,56,30.19,10.0,West,6.9,-,N/A,,Clear,280,2013-11-18 22:53:00
5:14 PM,30.2,19.4,64,30.20,10.0,West,5.8,-,N/A,,Clear,280,2013-11-18 23:14:00
5:34 PM,30.2,19.4,64,30.20,10.0,West,4.6,-,N/A,,Clear,270,2013-11-18 23:34:00
5:53 PM,30.2,17.6,60,30.21,10.0,West,3.5,-,N/A,,Clear,270,2013-11-18 23:53:00
6:14 PM,30.2,17.6,60,30.21,10.0,Calm,Calm,-,N/A,,Clear,0,2013-11-19 00:14:00
6:34 PM,30.2,19.4,64,30.22,10.0,Calm,Calm,-,N/A,,Clear,0,2013-11-19 00:34:00
6:53 PM,30.2,19.4,64,30.22,10.0,Calm,Calm,-,N/A,,Clear,0,2013-11-19 00:53:00
7:14 PM,30.2,19.4,64,30.22,10.0,Calm,Calm,-,N/A,,Clear,0,2013-11-19 01:14:00
7:34 PM,26.6,17.6,69,30.22,10.0,Calm,Calm,-,N/A,,Clear,0,2013-11-19 01:34:00
7:53 PM,26.6,17.6,69,30.22,10.0,Calm,Calm,-,N/A,,Clear,0,2013-11-19 01:53:00
8:14 PM,24.8,17.6,74,30.22,10.0,Calm,Calm,-,N/A,,Clear,0,2013-11-19 02:14:00
8:34 PM,26.6,17.6,69,30.23,10.0,Calm,Calm,-,N/A,,Clear,0,2013-11-19 02:34:00
8:54 PM,26.6,19.4,74,30.24,10.0,Calm,Calm,-,N/A,,Clear,0,2013-11-19 02:54:00
9:14 PM,24.8,17.6,74,30.24,10.0,Calm,Calm,-,N/A,,Clear,0,2013-11-19 03:14:00
9:34 PM,24.8,17.6,74,30.24,10.0,Calm,Calm,-,N/A,,Clear,0,2013-11-19 03:34:00
9:54 PM,24.8,17.6,74,30.24,10.0,Calm,Calm,-,N/A,,Clear,0,2013-11-19 03:54:00
10:14 PM,24.8,17.6,74,30.25,10.0,Calm,Calm,-,N/A,,Clear,0,2013-11-19 04:14:00
10:34 PM,24.8,17.6,74,30.25,10.0,Calm,Calm,-,N/A,,Clear,0,2013-11-19 04:34:00
10:54 PM,23.0,17.6,80,30.25,10.0,Calm,Calm,-,N/A,,Clear,0,2013-11-19 04:54:00
11:14 PM,24.8,17.6,74,30.24,10.0,Calm,Calm,-,N/A,,Clear,0,2013-11-19 05:14:00
11:34 PM,23.0,17.6,80,30.25,10.0,Calm,Calm,-,N/A,,Clear,0,2013-11-19 05:34:00
11:54 PM,23.0,15.8,74,30.25,10.0,Calm,Calm,-,N/A,,Clear,0,2013-11-19 05:54:00